Location: Ammerl�gen
(47.2167°N, 9.6000°E)
Time: 07:58:20
(UTC+00:00)

Iridium 4 Rocket - Pass Details

Date: 06 August 2021
Orbit: 584 x 904 km, 86.9° (Epoch: 18 September)

Event Time Altitude Azimuth Distance (km) Brightness Sun altitude
Rises 02:24:43 0° 341° (NNW) 3,494 7.3 -14.8°
Reaches altitude 10° 02:28:13 10° 320° (NW) 2,578 6.3 -14.4°
Maximum altitude 02:31:21 15° 287° (WNW) 2,244 5.6 -14.0°
Enters shadow 02:33:41 12° 262° (W) 2,437 5.6 -13.7°
